Martinsburg, WV

5:19 AM EDT on May 29, 2017 (GMT -0400)
Eastern W Va Regional-Shepherd

Weather History for KMRB - November, 2011

Change the Weather History Date:

Friday, November 11, 2011

  Actual Average Record
Temperature  
Mean Temperature 41 °F 46 °F  
Max Temperature 48 °F 56 °F 78 °F (1931)
Min Temperature 33 °F 35 °F 19 °F (1954)
Degree Days  
Heating Degree Days 24 19  
Month to date heating degree days 205 193  
Since 1 July heating degree days 577 639  
Cooling Degree Days 0 0  
Month to date cooling degree days 0 0  
Year to date cooling degree days 1284 895  
Moisture  
Dew Point 24 °F    
Average Humidity 50    
Maximum Humidity 62    
Minimum Humidity 38    
Precipitation  
Precipitation T in 0.09 in 1.06 in (1995)
Month to date precipitation 0.05 1.10  
Year to date precipitation 40.62 33.96  
Sea Level Pressure  
Sea Level Pressure 29.97 in    
Wind  
Wind Speed 13 mph (West)    
Max Wind Speed 25 mph    
Max Gust Speed 37 mph    
Visibility 10 miles    
Events      
T = Trace of Precipitation, MM = Missing Value Source: NWS Daily Summary

Daily Weather History Graph

Daily Weather History Graph

Search for Another Location

Airport or City:

Trip Planner

Search our weather history database for the weather conditions in past years. The results will help you decide how hot, cold, wet, or windy it might be!

Date:

Astronomy

Nov. 11, 2011 Rise Set
Actual Time 6:50 AM EST 5:00 PM EST
Civil Twilight 6:22 AM EST 5:28 PM EST
Nautical Twilight 5:50 AM EST 6:01 PM EST
Astronomical Twilight 5:18 AM EST 6:32 PM EST
Moon 5:28 PM EST (11/11) 7:37 AM EST (11/11)
Length of Visible Light 11h 06m
Length of Day
10h 09m
Full, 99% of the Moon is Illuminated
Nov 11
Full
Nov 18
Last Quarter
Nov 25
New
Dec 2
First Quarter
Dec 10
Full

Hourly Weather History & Observations

Time (EST) Temp. Windchill Dew Point Humidity Pressure Visibility Wind Dir Wind Speed Gust Speed Precip Events Conditions
12:53 AM 42.1 °F 35.2 °F 28.9 °F 60% 29.85 in 10.0 mi WNW 12.7 mph - N/A   Mostly Cloudy
1:53 AM 41.0 °F 35.2 °F 28.9 °F 62% 29.86 in 10.0 mi West 9.2 mph - 0.00 in   Overcast
2:53 AM 39.9 °F 33.9 °F 23.0 °F 51% 29.86 in 10.0 mi West 9.2 mph - N/A   Scattered Clouds
3:53 AM 39.2 °F 31.2 °F 21.2 °F 49% 29.85 in 10.0 mi WNW 13.8 mph - N/A   Overcast
4:53 AM 39.0 °F 31.0 °F 23.0 °F 53% 29.88 in 10.0 mi West 13.8 mph - N/A   Overcast
5:53 AM 39.0 °F 31.4 °F 21.0 °F 49% 29.89 in 10.0 mi WNW 12.7 mph 26.5 mph N/A   Overcast
6:53 AM 39.2 °F 30.2 °F 21.2 °F 49% 29.89 in 10.0 mi West 17.3 mph 26.5 mph N/A   Overcast
7:53 AM 39.0 °F 27.8 °F 23.0 °F 53% 29.91 in 10.0 mi West 26.5 mph 36.8 mph N/A   Scattered Clouds
8:53 AM 41.0 °F 32.8 °F 23.0 °F 49% 29.93 in 10.0 mi WNW 16.1 mph 31.1 mph N/A   Clear
9:53 AM 44.6 °F 38.4 °F 24.8 °F 46% 29.95 in 10.0 mi WNW 12.7 mph 25.3 mph N/A   Scattered Clouds
10:53 AM 44.6 °F 36.6 °F 24.8 °F 46% 29.95 in 10.0 mi WNW 19.6 mph 29.9 mph N/A   Overcast
11:53 AM 45.0 °F 36.9 °F 24.1 °F 44% 29.94 in 10.0 mi WNW 20.7 mph 29.9 mph N/A   Mostly Cloudy
12:53 PM 46.0 °F 40.2 °F 24.1 °F 42% 29.95 in 10.0 mi WNW 12.7 mph 28.8 mph N/A   Partly Cloudy
1:53 PM 46.9 °F - 23.0 °F 39% 29.96 in 10.0 mi WNW 19.6 mph 29.9 mph N/A   Mostly Cloudy
2:53 PM 46.9 °F - 23.0 °F 39% 29.97 in 10.0 mi West 19.6 mph 27.6 mph N/A   Partly Cloudy
3:53 PM 45.0 °F 38.5 °F 23.0 °F 42% 29.99 in 10.0 mi West 13.8 mph - N/A   Partly Cloudy
4:53 PM 42.1 °F 39.2 °F 24.1 °F 49% 30.01 in 10.0 mi SW 4.6 mph - N/A   Scattered Clouds
5:53 PM 42.1 °F 37.1 °F 24.1 °F 49% 30.04 in 10.0 mi WSW 8.1 mph - N/A   Overcast
6:53 PM 41.0 °F 34.7 °F 24.1 °F 51% 30.05 in 10.0 mi WSW 10.4 mph - N/A   Overcast
7:53 PM 41.0 °F 38.0 °F 23.0 °F 49% 30.07 in 10.0 mi SW 4.6 mph - N/A   Mostly Cloudy
8:53 PM 37.9 °F 31.5 °F 23.0 °F 55% 30.09 in 10.0 mi WSW 9.2 mph - N/A   Partly Cloudy
9:53 PM 35.1 °F 31.0 °F 23.0 °F 61% 30.10 in 10.0 mi South 4.6 mph - N/A   Clear
10:53 PM 35.1 °F 31.0 °F 23.0 °F 61% 30.11 in 10.0 mi South 4.6 mph - N/A   Clear
11:53 PM 34.0 °F 31.0 °F 21.9 °F 61% 30.11 in 10.0 mi South 3.5 mph - N/A   Clear